Simultaneous Nadir Overpasses (SNOs) Predictions

Prediction of SNOs between FY3D and NOAA-19 Satellite Orbit:

Table of predicted SNOs for the next 14.0 days since TLE Epoch: 11/23/2024
Index Date (FY3D) Time (FY3D) Lat,Lon (FY3D) SZA (FY3D ) Date (NOAA-19) Time (NOAA-19) Lat,Lon (NOAA-19) SZA (NOAA-19 ) Distance(km) Time Diff (sec)
1 11/23/2024 03:17:56 76.03, 132.85 96.45 11/23/2024 03:17:24 76.04, 133.00 96.46 4.13 32
2 11/23/2024 04:08:40 -76.03, -59.81 83.55 11/23/2024 04:08:19 -76.00, -59.86 83.58 3.20 21
3 11/23/2024 04:59:26 76.03, 107.49 96.46 11/23/2024 04:59:21 76.05, 107.55 96.48 2.53 5
4 11/23/2024 05:50:10 -76.03, -85.17 83.54 11/23/2024 05:50:15 -76.06, -85.16 83.51 3.31 5
5 11/23/2024 06:40:56 76.03, 82.13 96.47 11/23/2024 06:41:18 76.06, 82.09 96.50 3.53 22
6 11/23/2024 07:31:41 -76.07,-110.69 83.49 11/23/2024 07:32:12 -76.06,-110.61 83.49 2.24 31
7 11/23/2024 08:22:27 76.07, 56.61 96.52 11/23/2024 08:23:15 76.07, 56.63 96.52 0.72 48
8 11/23/2024 09:13:11 -76.06,-136.06 83.48 11/23/2024 09:14:09 -76.07,-136.07 83.47 0.89 58
9 11/23/2024 10:03:58 76.11, 31.09 96.58 11/23/2024 10:05:12 76.07, 31.18 96.55 4.74 74
10 11/23/2024 10:54:51 -76.51,-163.07 83.05 11/23/2024 10:55:58 -76.43,-160.20 83.06 75.11 67



Historial Predications of SNOs between FY3D and NOAA-19
